This is the latest recevied weather packets stored in our database for station/object SV9TNF-1. If no packets are shown the sender has not sent any weather packets the latest 10 day(s).
| Time | Temp. | Humidity | Pressure | Rain* | Wind** | Luminosity | Snow |
|---|---|---|---|---|---|---|---|
| 1777940270 | 13.89° C | 74% | 1005.8 hPa | 0 mm | 8.05 m/s, 233° | - | - |
| 1777939970 | 13.89° C | 74% | 1005.8 hPa | 0 mm | 8.05 m/s, 253° | - | - |
| 1777939670 | 14.44° C | 73% | 1005.8 hPa | 0 mm | 8.05 m/s, 145° | - | - |
| 1777939370 | 14.44° C | 73% | 1005.8 hPa | 0 mm | 12.07 m/s, 209° | - | - |
| 1777939070 | 14.44° C | 73% | 1006.1 hPa | 0 mm | 9.83 m/s, 321° | - | - |
| 1777938770 | 14.44° C | 74% | 1006.1 hPa | 0 mm | 10.28 m/s, 213° | - | - |
| 1777938470 | 14.44° C | 75% | 1006.1 hPa | 0 mm | 9.39 m/s, 249° | - | - |
| 1777938170 | 14.44° C | 75% | 1006.1 hPa | 0 mm | 13.41 m/s, 276° | - | - |
| 1777937870 | 13.89° C | 75% | 1006.1 hPa | 0 mm | 9.39 m/s, 245° | - | - |
| 1777937570 | 13.89° C | 75% | 1006.1 hPa | 0 mm | 8.05 m/s, 300° | - | - |
| 1777937269 | 14.44° C | 75% | 1006.1 hPa | 0 mm | 8.05 m/s, 313° | - | - |
| 1777936969 | 14.44° C | 75% | 1006.1 hPa | 0 mm | 8.94 m/s, 255° | - | - |
| 1777936669 | 14.44° C | 74% | 1006.1 hPa | 0 mm | 8.94 m/s, 308° | - | - |
| 1777936369 | 14.44° C | 73% | 1006.4 hPa | 0 mm | 10.73 m/s, 310° | - | - |
| 1777936069 | 14.44° C | 72% | 1006.4 hPa | 0 mm | 8.49 m/s, 324° | - | - |
| 1777935769 | 14.44° C | 73% | 1006.4 hPa | 0 mm | 10.28 m/s, 330° | - | - |
| 1777935469 | 14.44° C | 72% | 1006.4 hPa | 0 mm | 8.94 m/s, 261° | - | - |
| 1777935168 | 14.44° C | 71% | 1006.4 hPa | 0 mm | 12.07 m/s, 235° | - | - |
| 1777934868 | 14.44° C | 72% | 1006.4 hPa | 0 mm | 10.28 m/s, 270° | - | - |
| 1777934569 | 14.44° C | 72% | 1006.4 hPa | 0 mm | 8.94 m/s, 327° | - | - |
| 1777934269 | 14.44° C | 70% | 1006.4 hPa | 0 mm | 9.83 m/s, 245° | - | - |
| 1777933968 | 14.44° C | 70% | 1006.4 hPa | 0 mm | 7.15 m/s, 280° | - | - |
| 1777933668 | 14.44° C | 70% | 1006.4 hPa | 0 mm | 6.71 m/s, 342° | - | - |
| 1777933368 | 14.44° C | 71% | 1006.4 hPa | 0 mm | 8.05 m/s, 337° | - | - |
| 1777933068 | 14.44° C | 71% | 1006.4 hPa | 0 mm | 8.05 m/s, 270° | - | - |
* Rain latest hour (hover to see other rain measurements)
** Current wind speed in m/s (hover to see current wind gust speed)